Location: Godiavel Galaoual
(15.2485°N, 12.6604°W)
Time: 04:49:15
(UTC+00:00)

METEOR M2 - Pass Details

Date: 03 August 2021
Orbit: 818 x 827 km, 98.5° (Epoch: 26 September)

Event Time Altitude Azimuth Distance (km) Brightness Sun altitude
Rises 19:57:01 0° 169° (SSE) 3,354 ? -9.3°
Reaches altitude 10° 19:59:21 10° 169° (S) 2,422 ? -9.8°
Maximum altitude 20:04:44 84° 256° (WSW) 833 ? -11.0°
Drops below altitude 10° 20:10:07 10° 346° (NNW) 2,423 ? -12.2°
Sets 20:12:28 0° 347° (NNW) 3,356 ? -12.7°
